星链-31215 (STARLINK-31215 )

导读

STARLINK-31215是美国太空探索技术公司(SpaceX)星链(Starlink)卫星星座的一员,于2024年1月29日发射入轨。星链项目旨在为全球提供高速卫星互联网接入服务,该卫星加入星座后,进一步扩充了星链低轨卫星网络的覆盖能力与服务容量,助力全球偏远地区及海上移动场景的网络服务覆盖。

基本信息
目录编号:
58872
目录名称:
STARLINK-31215
国际标识:
2024-019V
轨道中心:
EARTH
卫星名称:
星链-31215
卫星全名:
星链-31215 (STARLINK-31215 )
卫星状态:
在轨 (已飞行949 天)
发射日期:
2024-01-29 UTC
国别 :
美国 (US)
星等 :
--
轨道信息
数据来源 国际轨道数据
星历时间: 2026-09-04T14:04:00+0800
7小时前
查看轨道信息
半长轴: 6861.26km
偏心率: 0.0001545
轨道倾角: 43.004°
近地点辐角 281.367°
升交点赤经 320.294°
平近点角 78.701°
近地点: 482.062km
远地点: 484.184km
周期: 94.268分钟
每日圈数: 15.275556
详细信息
固有亮度:
5
最大亮度:
0.3
卫星平台:
Starlink v2.0 mini
覆盖范围:
全球
运营商:
太空探索技术公司
运营商所在国:
美国
制造商(研发单位):
太空探索技术公司
制造商所在国:
美国
使用方式:
暂无
卫星简介
星链(Starlink)计划是由太空探索技术公司(SpaceX)提出的一个巨型低轨卫星互联网星座项目,计划在2019年至2024年间在太空搭建由约1.2万颗卫星组成的“星链”网络,其中1584颗将部署在地球上空550千米处的近地轨道,并从2020年开始工作。该卫星仍在工作。
2D轨道图
3D轨道图
轨道高度分析图
轨道倾角分析图
轨道综合分析图
查看轨道综合分析图
交会数据列表
事件ID 空间交会对象 最接近时刻(TCA) 交会距离 交会风险概率(CRP) 交会风险指数(CRI) 操作
CDM_260903-155205-717505-887224
OBJECT K (57175)
2026-09-03T
15:52:28+0000
0.046 km
近距离
1.407495E-3 极高风险 0.98
CDM_260905-131405-887206-656621
2026-09-05T
13:14:06+0000
0.300 km
远距离
3.852374E-4 高风险 0.87
CDM_260906-040805-887206-656621
2026-09-06T
04:08:34+0000
0.616 km
远距离
8.128755E-5 中风险 0.73
CDM_260906-065905-887206-390921
2026-09-06T
06:59:03+0000
1.024 km
极远距离
1.348867E-5 中风险 0.58
CDM_260906-052405-887206-390921
2026-09-06T
05:24:53+0000
1.164 km
极远距离
8.658999E-6 低风险 0.54
CDM_260906-154705-887206-652321
2026-09-06T
15:47:06+0000
1.050 km
极远距离
6.998693E-6 低风险 0.52
CDM_260905-113905-887206-656621
2026-09-05T
11:39:57+0000
1.504 km
极远距离
4.340006E-6 低风险 0.48
CDM_260906-023405-887206-656621
2026-09-06T
02:34:25+0000
2.064 km
极远距离
1.785885E-6 低风险 0.4
CDM_260905-144805-887206-656621
2026-09-05T
14:48:15+0000
2.145 km
极远距离
1.635053E-6 低风险 0.39
CDM_260905-065803-182005-887221
2026-09-05T
06:58:37+0000
2.909 km
极远距离
1.34992E-6 低风险 0.38